{"data":{"norad_id":59166,"intl_designator":"2024-044Q","name":"STARLINK-31342","alt_names":[],"object_type":"PAYLOAD","status":"ACTIVE","operator":null,"country":"US","launch_date":"2024-03-04","launch_site_code":"AFETR","launch_vehicle":null,"mission":null,"orbit_class":"UNKNOWN","rcs_meters":null,"size_class":null,"mass_kg":null,"dimensions":null,"purposes":["comms"],"wikipedia_slug":null,"has_3d_model":false,"image_url":null,"decayed_at":null,"tle_current":{"epoch":"2026-05-23T23:55:45.015456Z","epoch_age_seconds":160995,"freshness":"FRESH","line1":"1 59166U 24044Q   26143.99704879 -.00001532  00000+0 -46189-4 0  9994","line2":"2 59166  43.0029  41.6628 0001401 262.6975  97.3718 15.27567155125116","mean_motion":15.27567155,"eccentricity":0.0001401,"inclination_deg":43.0029,"raan_deg":41.6628,"arg_perigee_deg":262.6975,"mean_anomaly_deg":97.3718,"bstar":-4.6189e-5,"rev_number":12511,"period_min":94.267541383475,"perigee_km":482.12630129944,"apogee_km":484.04881642083,"semimajor_km":6861.2245588601,"source":"CELESTRAK","updated_at":"2026-05-25T13:38:18.835340Z"}}}